Wind_Speed
96 96 96 96 96 97 97 98 98 99 99 99 99 99 99 99 99 99 99 99 99 100 100 101 101 102 102 103 103 104 104 105 105 106 106 107 108 108 109 110 111 111 111 111 110 109 108 107 105 104 102 100 99 97 96 94 93 91 90 89 87 86 85 84 83 82 80 79 78 77 76 75 75 74 74 74 74 74 74 74 74 75 75 75 75 75
95 96 96 96 96 96 97 98 98 98 99 99 99 99 99 99 99 99 99 99 99 100 100 101 101 102 103 103 104 104 105 105 106 106 107 108 108 109 109 110 110 110 110 109 109 108 106 105 103 102 100 98 97 95 94 93 91 90 89 87 86 85 84 83 81 80 79 78 77 76 76 75 75 74 74 74 75 75 75 75 75 76 76 76 76 76
95 95 96 96 96 96 97 97 98 98 98 99 99 99 98 98 98 99 99 99 100 100 101 102 102 103 104 104 105 105 106 106 106 107 107 108 108 109 109 109 109 109 108 108 107 105 104 103 101 99 98 96 95 94 92 91 90 88 87 86 85 83 82 81 80 79 78 77 76 76 75 75 75 75 75 76 76 76 76 76 77 77 77 77 77 78
95 95 96 96 96 96 97 98 98 98 98 99 99 98 98 98 99 99 99 100 100 101 102 103 103 104 105 105 106 106 106 107 107 107 108 108 108 108 108 108 107 107 106 105 104 103 102 100 99 97 96 94 93 92 91 90 88 87 85 84 83 81 80 79 78 77 77 77 76 76 76 76 76 77 77 77 77 77 77 78 78 78 78 78 78 79
95 95 96 96 96 97 97 98 98 98 98 98 98 98 98 99 99 99 100 101 101 102 103 104 104 105 105 106 106 106 107 107 107 107 107 107 107 106 106 106 105 104 104 103 102 100 99 98 96 95 94 93 92 91 89 88 86 85 83 82 81 80 79 78 78 77 77 77 77 77 78 78 78 78 78 78 79 79 79 79 79 79 79 79 80 80
94 95 95 96 97 97 98 98 98 98 98 98 98 98 98 99 99 100 101 101 102 103 104 104 105 105 106 106 106 106 106 106 106 106 105 105 105 104 104 103 103 102 101 100 99 98 97 96 94 93 92 91 90 89 87 86 84 83 81 80 79 78 78 78 78 78 78 78 78 79 79 79 79 79 80 80 80 80 80 80 81 81 81 81 81 82
93 94 94 95 96 97 97 98 98 98 98 98 98 98 99 99 99 100 101 102 102 103 104 104 105 105 105 105 105 105 105 104 104 104 103 103 103 102 101 101 100 99 98 97 96 95 94 94 93 92 91 89 88 86 85 83 82 81 80 79 78 78 78 79 79 79 79 80 80 80 80 80 81 81 81 81 81 81 82 82 82 82 83 83 83 83
92 93 93 94 95 96 97 97 97 98 98 98 98 99 99 99 100 100 101 101 102 102 103 103 104 104 104 104 103 103 103 102 102 102 101 101 100 100 99 98 97 96 96 95 94 93 93 92 91 90 88 87 85 84 82 81 80 80 79 79 79 79 79 80 80 80 80 81 81 81 81 81 82 82 82 82 83 83 83 84 84 84 85 85 85 86
91 91 92 93 94 95 96 97 97 97 97 98 98 98 99 99 100 100 100 101 101 101 102 102 102 102 102 102 101 101 100 100 99 99 99 98 98 97 96 96 95 94 93 93 92 91 90 89 88 87 85 84 83 82 81 80 80 80 80 80 80 80 80 81 81 81 81 82 82 82 82 82 83 83 83 84 84 85 85 85 86 86 87 87 88 88
89 90 91 92 93 94 95 96 96 96 96 96 97 97 98 98 99 99 99 100 100 99 100 100 100 100 100 100 99 98 98 97 97 96 96 96 95 95 94 93 93 92 92 91 90 89 88 86 85 84 83 82 81 81 81 80 80 81 81 81 81 81 81 81 82 82 82 82 83 83 83 84 84 84 85 85 86 86 87 88 88 89 89 90 90 91
87 88 89 90 91 91 92 93 94 94 94 95 95 95 96 96 97 97 98 98 98 98 97 98 98 98 98 97 96 96 95 94 94 94 93 93 93 92 92 91 91 90 90 89 87 86 85 84 83 82 82 81 81 81 81 81 81 81 81 81 82 82 82 82 82 83 83 83 84 84 84 85 86 86 87 87 88 89 89 90 91 91 92 92 93 93
84 85 86 87 88 89 90 90 91 91 92 92 93 94 94 94 94 94 95 96 96 96 95 95 95 95 95 94 94 93 92 92 91 91 91 91 91 90 90 89 89 88 87 86 85 84 83 82 82 82 82 82 82 81 81 81 81 81 82 82 82 82 82 83 83 83 84 84 85 86 86 87 88 88 89 90 91 91 92 93 93 94 94 95 95 96
81 82 83 84 85 85 86 87 88 88 89 89 90 91 92 91 91 91 92 92 93 93 92 92 92 92 92 91 90 90 89 89 89 89 90 89 89 88 87 87 86 85 84 84 83 83 82 82 82 82 82 82 81 81 81 81 81 81 82 82 82 83 83 84 84 85 85 86 87 88 88 89 90 91 92 92 93 94 94 95 95 96 96 97 97 97
77 78 79 80 81 81 82 83 84 85 86 86 87 88 88 88 88 88 89 89 89 89 89 89 89 89 89 88 87 87 87 87 87 88 87 87 86 85 84 84 84 84 83 83 83 83 83 82 82 82 82 82 81 81 81 81 82 82 82 83 83 84 84 85 86 87 87 88 89 90 91 91 92 93 94 94 95 96 96 97 97 97 98 98 98 98
72 73 74 75 77 78 79 80 81 82 82 83 83 84 84 85 85 85 85 86 86 86 86 86 87 87 86 86 85 84 84 84 85 85 85 85 83 83 82 83 84 84 84 84 84 84 83 83 83 83 82 82 82 82 82 82 83 83 84 84 85 85 86 87 88 89 89 90 91 92 93 94 94 95 96 96 97 97 98 98 98 98 98 98 98 98
68 69 70 72 73 74 75 76 77 78 79 79 80 80 80 81 81 81 82 82 83 83 83 83 84 84 84 83 82 81 81 82 82 83 83 83 83 82 82 83 85 85 85 84 84 84 84 83 83 83 83 83 83 83 83 84 84 85 85 86 87 87 88 89 90 91 91 92 93 94 95 95 96 97 97 97 98 98 98 98 98 98 97 97 97 96
63 65 67 68 70 71 72 72 73 74 75 75 76 76 77 77 78 78 79 79 80 80 80 81 81 82 82 81 80 79 79 80 81 82 83 84 84 83 83 84 85 86 85 85 85 85 85 85 85 84 84 85 85 85 85 86 86 87 88 88 89 89 90 91 92 93 93 94 95 96 96 97 97 98 98 98 98 98 97 97 97 96 96 95 95 94
60 61 63 64 66 67 68 69 69 70 71 72 73 73 74 74 75 75 76 76 77 77 78 78 79 79 80 80 80 79 79 80 82 83 84 85 85 84 84 84 86 86 86 86 86 86 86 86 86 86 86 87 87 87 87 88 88 89 89 90 91 91 92 93 93 94 95 95 96 97 97 97 98 98 97 97 97 96 96 95 95 94 93 93 92 91
56 58 59 61 62 63 64 65 66 67 68 69 69 70 71 72 72 73 73 74 74 75 76 77 77 78 79 80 81 80 80 81 83 84 85 86 86 85 85 85 86 87 87 87 87 88 88 88 88 88 88 88 89 89 89 90 90 91 91 92 92 93 94 94 95 95 96 96 97 97 97 97 97 96 96 95 95 94 93 92 92 91 90 89 89 88
53 55 56 57 59 60 61 62 63 64 65 66 67 68 69 70 70 71 72 73 74 75 75 77 78 79 79 80 81 81 81 82 83 85 86 86 87 86 86 87 88 88 89 89 89 89 89 89 90 90 90 90 90 91 91 91 92 92 93 93 94 94 95 95 95 96 96 96 96 96 96 95 95 94 93 92 91 91 90 89 88 87 87 86 85 84
51 52 54 55 56 58 59 60 61 62 63 64 66 67 68 69 70 71 72 73 74 75 76 77 78 79 80 81 82 82 82 83 84 86 87 87 88 88 87 88 89 90 90 90 90 90 90 91 91 91 91 92 92 92 93 93 93 94 94 94 95 95 95 95 95 95 95 95 94 94 93 92 92 91 90 89 88 87 86 85 85 84 83 82 81 81
50 51 53 54 55 57 58 60 61 62 64 65 66 68 69 70 71 72 73 74 75 76 77 78 79 80 80 81 82 83 83 84 85 87 88 89 89 89 88 89 90 91 92 92 92 92 92 92 93 93 93 93 94 94 94 94 94 94 94 94 94 94 94 93 93 93 93 92 91 91 90 89 88 87 86 85 85 84 83 82 81 80 79 78 78 77
51 52 54 55 56 58 59 61 62 64 65 66 68 69 70 71 72 74 75 75 76 77 78 79 80 80 81 82 83 84 84 85 86 87 88 90 91 90 90 90 91 92 93 94 94 94 94 94 94 95 95 95 95 95 94 94 94 94 93 93 92 92 91 91 90 90 89 89 88 87 86 86 85 84 83 82 81 80 79 78 77 77 76 75 74 74
53 54 56 57 58 60 61 62 64 65 66 67 69 70 71 72 73 74 76 76 78 79 79 80 81 82 82 83 84 84 85 85 86 88 89 91 91 92 92 92 93 94 95 95 96 96 96 96 96 95 95 95 94 94 93 93 92 92 91 90 89 89 88 87 87 86 86 85 84 84 83 82 81 80 80 79 78 77 76 75 74 73 72 72 71 71
55 56 57 59 60 61 62 64 65 66 67 69 70 71 72 73 74 75 76 77 78 79 80 81 82 83 84 84 85 85 86 86 87 89 90 92 93 93 93 94 95 96 97 97 97 97 97 97 96 95 94 93 93 92 91 90 89 89 88 87 86 85 84 84 83 83 82 81 81 80 80 79 78 77 76 75 74 73 72 71 70 70 69 69 69 69
57 58 59 60 61 62 63 65 66 67 68 69 71 72 73 74 75 76 77 78 79 80 81 83 84 84 85 85 86 87 87 88 89 90 92 94 95 96 95 95 96 97 98 98 97 97 96 96 95 93 92 91 90 89 88 87 86 85 84 83 82 81 81 80 80 79 79 78 77 77 76 75 75 74 73 72 71 70 69 68 67 67 67 66 67 67
58 59 60 61 62 63 65 66 67 68 69 70 72 73 74 75 77 78 79 80 81 82 83 85 86 86 87 87 88 89 89 90 91 92 93 94 96 97 96 96 96 96 97 97 96 95 95 94 93 91 90 88 87 86 85 84 83 82 81 79 78 78 77 77 76 76 75 75 74 73 73 72 71 70 70 69 68 67 66 65 65 64 64 64 64 65
60 61 62 63 64 65 66 68 69 70 71 72 74 75 76 77 79 80 82 82 83 84 86 87 88 89 89 90 90 90 91 92 92 93 93 94 95 96 95 94 94 94 94 95 94 93 92 92 90 89 87 86 84 83 81 80 79 78 77 75 75 74 73 73 73 72 72 71 71 70 69 68 68 67 66 66 65 64 64 63 62 62 62 62 63 63
62 63 64 65 66 68 69 70 71 72 74 75 76 77 78 80 81 83 84 85 86 87 88 89 90 91 91 92 92 91 91 92 92 92 92 93 93 93 93 92 91 91 91 92 92 91 91 89 87 86 85 83 81 80 78 77 75 74 73 72 71 70 70 70 69 69 68 68 67 66 66 65 65 64 64 63 63 62 61 61 61 61 61 61 61 61
64 65 66 67 68 70 71 72 73 75 76 77 79 80 81 82 83 85 86 87 88 89 90 90 91 91 91 91 91 91 91 90 89 89 89 90 91 91 90 89 89 89 88 89 89 89 89 87 85 83 81 80 78 76 74 73 71 70 69 68 67 67 66 66 66 65 65 64 64 63 63 62 62 61 61 61 60 60 60 60 59 59 59 60 60 60
65 66 68 69 70 72 73 74 76 77 78 79 81 82 83 84 85 86 87 88 88 89 90 90 90 90 90 89 89 89 89 88 87 86 87 88 88 88 88 87 87 86 85 86 86 87 86 85 82 80 78 76 74 72 70 69 67 66 65 64 64 63 62 62 62 62 62 61 61 60 60 60 59 59 59 59 59 59 58 59 58 59 59 59 59 60
67 69 70 71 73 74 75 76 78 79 80 81 82 83 84 85 85 86 87 87 87 87 88 88 88 87 87 86 87 86 86 86 85 84 84 86 86 86 85 85 85 84 83 82 82 82 82 82 80 77 75 73 71 69 67 65 64 63 62 61 60 59 59 59 59 59 59 58 58 57 57 57 57 57 57 57 57 58 58 58 58 58 58 58 59 59
70 71 72 73 75 76 77 78 79 80 81 82 82 83 83 84 84 84 85 85 85 85 85 85 85 85 85 84 84 84 84 84 83 83 83 84 84 84 83 82 82 81 80 78 78 77 77 77 76 75 73 71 68 66 64 62 60 59 58 57 57 56 56 55 56 56 56 56 55 55 55 55 55 55 56 56 57 57 57 57 57 57 57 58 58 58
72 73 74 75 76 77 78 78 79 80 80 81 81 82 82 82 82 82 82 82 82 82 82 83 83 83 83 83 83 83 82 82 81 81 81 81 81 81 80 79 78 77 76 75 74 73 73 72 72 71 70 68 66 63 61 59 57 56 55 54 54 53 53 53 53 53 53 53 53 53 53 53 54 54 55 56 56 56 56 56 56 56 56 57 57 56
73 74 75 76 76 77 78 78 78 79 79 79 79 79 79 80 80 80 80 80 81 81 81 81 81 81 82 82 82 81 81 80 79 79 78 78 78 77 76 75 74 73 72 71 70 70 69 69 68 67 67 65 63 61 58 56 54 53 52 51 51 50 50 50 51 51 51 51 52 52 52 52 53 54 55 55 55 55 55 55 55 55 55 55 54 54
74 75 75 75 76 76 76 76 77 77 77 77 77 77 77 78 78 79 79 79 80 80 80 80 80 80 80 80 80 79 79 78 77 76 75 74 74 73 72 71 70 69 68 68 67 66 66 65 65 64 63 62 60 58 55 53 51 50 50 49 48 48 48 48 49 50 50 50 50 51 51 52 53 53 54 54 54 53 53 53 53 53 52 52 51 51
74 74 74 74 74 74 74 74 74 75 75 75 75 76 76 77 77 78 78 79 79 79 79 79 79 78 78 77 77 76 76 75 74 72 71 70 69 69 68 67 66 66 65 64 64 64 63 62 62 60 59 58 57 55 53 51 49 48 48 47 47 46 46 47 48 48 49 50 50 51 51 52 52 52 52 52 52 51 51 51 50 50 49 49 48 48
72 72 72 72 72 72 72 72 73 73 74 74 75 75 76 76 77 78 78 78 78 78 78 77 77 76 75 74 73 73 72 71 70 69 67 66 65 65 64 64 63 62 62 61 61 60 60 59 58 57 56 55 53 52 50 49 48 47 46 46 45 45 45 45 46 47 48 49 50 51 51 51 51 51 50 50 49 49 49 48 47 47 46 46 45 45
70 70 70 70 70 70 71 71 72 73 73 74 75 75 76 76 76 77 77 77 77 77 76 75 74 73 72 71 70 69 68 67 66 65 64 63 62 61 61 60 60 59 59 58 58 57 57 56 55 54 53 52 50 49 48 47 46 46 46 46 45 45 45 45 45 46 47 48 50 50 50 50 49 49 48 48 47 46 46 45 44 44 43 43 43 43
68 68 69 69 69 70 70 71 72 73 73 74 75 75 75 75 76 76 76 75 75 74 73 72 71 70 69 67 66 65 64 63 62 61 60 59 58 58 57 57 57 56 56 55 55 54 54 53 52 51 50 49 48 47 46 45 45 45 45 46 46 45 45 44 45 45 47 48 49 49 49 48 48 47 46 45 44 44 43 42 42 41 41 41 40 40
67 68 68 69 69 70 71 72 72 73 73 74 74 74 74 74 74 74 74 73 72 72 70 69 68 67 65 64 63 62 61 60 59 58 57 56 55 54 54 54 54 53 53 53 52 51 51 50 49 48 47 47 46 45 44 44 44 44 45 46 46 46 45 44 44 45 46 47 48 48 47 46 45 44 43 43 42 41 41 40 40 39 39 39 39 38
67 68 69 69 70 71 71 72 72 73 73 73 73 73 73 73 72 72 72 71 70 69 67 66 65 64 62 61 60 59 58 57 56 54 54 53 52 51 51 51 51 51 50 50 50 49 48 48 47 46 45 44 44 44 44 44 44 45 46 46 47 47 46 45 44 45 45 46 46 46 45 44 43 42 41 40 40 39 39 39 38 38 37 37 37 37
68 69 69 70 71 71 72 72 72 73 73 72 72 72 71 71 70 70 69 68 67 66 64 63 62 61 60 58 57 56 54 53 52 51 50 50 49 49 48 48 48 48 48 48 48 47 46 45 45 44 43 43 43 43 43 44 44 45 46 47 47 47 46 45 45 45 45 45 44 43 43 42 41 40 39 38 38 38 37 37 37 37 36 36 36 35
69 70 70 71 71 72 72 72 72 72 72 71 71 70 69 68 68 67 66 65 64 63 62 60 59 58 57 56 55 53 52 50 49 48 47 47 46 46 46 46 46 46 46 46 46 45 45 44 43 42 42 42 42 43 43 44 45 46 47 47 47 46 46 45 45 44 44 43 42 41 41 40 39 38 37 37 36 36 36 36 36 35 35 35 34 34
70 71 71 71 72 72 72 72 72 71 71 70 69 68 67 66 65 64 64 62 61 60 59 58 57 56 55 53 52 51 49 48 46 45 44 44 43 43 44 44 44 45 45 45 44 44 43 42 42 41 41 41 42 42 43 44 46 47 47 47 46 45 45 44 44 43 42 41 40 39 39 38 37 37 36 35 35 34 34 34 34 34 34 34 33 33
71 72 72 72 72 72 72 72 71 70 69 68 66 65 64 63 62 62 61 60 59 58 57 55 54 53 52 51 50 48 47 45 44 43 42 41 41 41 42 42 43 43 43 43 43 43 42 42 41 41 40 41 41 42 43 44 46 47 47 46 45 44 44 43 42 42 41 39 38 38 37 36 36 35 35 34 33 33 33 33 33 33 33 33 33 33
72 72 72 73 72 72 71 71 70 68 67 66 64 63 61 61 60 59 58 57 56 55 54 53 52 51 50 49 47 46 45 44 42 41 40 39 39 39 40 40 41 41 42 42 42 42 42 41 41 40 40 41 41 42 43 44 45 46 46 45 44 43 42 41 41 40 39 38 37 36 36 35 35 34 34 33 32 32 32 32 32 32 33 33 33 33
73 73 73 72 72 71 70 69 68 66 65 63 61 60 59 58 57 57 56 55 54 53 52 51 50 49 48 46 45 44 43 42 41 40 39 38 38 38 38 39 39 40 40 41 41 41 41 41 41 40 40 40 41 42 43 44 45 45 45 44 43 42 41 40 39 38 37 36 35 35 34 34 34 33 33 32 31 31 30 30 31 31 32 33 33 33
73 73 73 72 71 70 69 67 66 64 62 61 59 58 56 55 55 54 54 53 52 51 50 49 48 47 45 44 43 42 41 40 39 38 38 37 37 38 38 38 39 39 40 40 41 41 41 41 41 40 40 40 41 42 43 44 44 43 43 42 41 40 39 38 37 36 35 34 34 34 33 33 33 33 32 32 31 30 29 29 29 30 31 32 33 33
73 72 72 71 69 68 67 65 63 62 60 58 57 55 54 53 52 52 51 51 50 49 48 47 46 45 44 42 41 40 39 38 38 37 37 37 37 38 38 38 39 39 40 41 41 41 42 41 41 40 39 39 40 41 42 43 43 42 41 40 39 38 37 36 35 34 34 33 33 32 32 32 32 32 32 31 30 29 28 28 28 29 31 32 33 34
73 72 70 69 67 66 64 63 61 59 57 56 54 53 52 51 50 50 49 48 48 47 46 45 44 43 42 41 40 39 38 37 37 36 36 37 37 37 38 39 39 40 40 41 42 42 42 42 41 40 38 38 38 39 41 41 41 40 39 38 37 36 35 34 33 33 32 32 31 31 31 31 31 31 31 31 30 29 28 28 28 29 30 32 33 34
Wind_Direction
266 267 267 268 268 269 269 270 271 272 272 273 274 274 275 275 275 275 276 276 276 276 276 276 277 277 277 278 278 278 279 279 280 280 281 281 282 282 283 283 284 284 285 285 285 286 286 286 286 286 286 286 286 286 286 286 286 285 285 285 285 284 284 284 283 283 283 282 282 281 281 280 279 279 278 278 277 277 276 276 275 275 275 274 274 273
266 266 267 268 268 269 269 270 270 271 272 273 274 274 275 275 276 276 276 276 276 277 277 277 277 278 278 278 278 278 279 279 280 280 281 281 282 282 282 283 283 284 284 285 285 285 286 286 286 286 286 286 286 286 285 285 285 285 285 285 284 284 284 283 283 283 282 282 281 281 280 280 279 279 278 278 277 277 277 276 276 275 275 275 274 274
266 266 267 267 268 268 269 269 270 270 271 272 273 274 275 275 275 276 276 276 276 276 277 277 277 277 277 278 278 278 279 279 280 280 281 281 281 282 282 283 283 284 284 284 285 285 285 285 285 285 285 285 285 285 285 285 285 284 284 284 284 284 283 283 283 283 282 282 281 281 281 280 280 279 279 278 278 278 277 277 276 276 275 275 274 274
266 266 267 267 267 268 268 269 269 270 271 271 272 273 274 274 274 275 275 275 275 276 276 276 276 277 277 277 278 278 279 279 280 280 281 281 282 282 282 283 283 283 284 284 284 284 285 285 285 285 285 285 285 285 284 284 284 284 284 284 284 283 283 283 283 282 282 282 282 281 281 281 280 280 279 279 279 278 278 277 277 276 276 275 275 274
266 266 266 267 267 267 268 268 269 270 270 271 272 272 273 273 273 274 274 274 275 275 275 276 276 277 277 278 278 279 279 280 280 281 281 281 282 282 282 283 283 283 283 284 284 284 284 284 284 284 284 284 284 284 284 284 284 284 284 283 283 283 283 283 283 282 282 282 282 282 281 281 281 280 280 280 279 279 278 278 278 277 276 276 275 275
266 266 266 267 267 267 268 268 269 270 270 271 271 272 272 272 273 273 274 274 274 275 275 276 276 277 277 278 278 279 279 280 280 281 281 282 282 282 282 283 283 283 283 283 283 283 284 284 284 284 284 284 284 284 284 284 283 283 283 283 283 283 283 283 283 282 282 282 282 282 282 281 281 281 281 280 280 280 279 279 278 278 277 276 276 275
266 266 267 267 267 267 268 269 269 270 270 271 271 272 272 272 273 273 274 274 275 275 276 276 277 277 278 278 279 279 280 280 281 281 282 282 282 282 282 282 282 283 283 283 283 283 283 283 283 283 283 283 283 283 283 283 283 283 283 283 283 283 283 283 283 283 282 282 282 282 282 282 281 281 281 281 280 280 279 279 279 278 277 277 276 276
266 267 267 267 267 268 268 269 269 270 270 271 271 272 272 272 273 273 274 274 275 276 276 277 277 278 278 279 279 280 280 281 281 281 282 282 282 282 282 282 282 282 282 282 282 282 282 282 283 283 283 283 283 283 283 283 283 283 283 283 283 283 283 283 283 283 283 283 282 282 282 282 282 281 281 281 280 280 280 279 279 278 278 277 277 276
268 268 268 268 268 268 269 269 270 270 270 271 271 272 272 273 273 274 275 275 276 276 277 277 278 278 279 279 280 280 281 281 281 281 281 282 282 282 282 281 281 282 282 282 282 282 282 282 282 282 282 283 283 283 283 283 283 283 284 284 284 284 283 283 283 283 283 283 283 282 282 282 282 281 281 281 280 280 280 279 279 278 278 278 277 277
269 269 269 269 269 269 269 270 270 271 271 271 272 272 273 273 274 275 275 276 276 277 277 278 279 279 280 280 280 280 281 281 281 281 281 281 281 281 281 281 281 281 281 282 282 282 282 282 282 282 282 283 283 283 283 283 284 284 284 284 284 284 284 284 283 283 283 283 283 283 282 282 282 281 281 281 280 280 280 279 279 279 278 278 277 277
271 270 270 270 270 270 270 270 271 271 272 272 273 273 273 274 275 276 276 277 277 278 278 279 279 279 280 280 280 281 281 281 281 281 281 281 281 281 281 281 281 281 281 282 282 282 282 282 282 282 283 283 283 283 284 284 284 284 284 284 284 284 284 284 284 283 283 283 283 283 282 282 282 282 281 281 281 280 280 279 279 279 278 278 278 277
271 271 271 270 270 270 271 271 271 272 272 273 273 274 274 275 276 276 277 278 278 279 279 279 279 279 280 280 280 281 281 281 281 281 281 281 281 281 281 281 281 282 282 282 282 282 282 282 283 283 283 283 284 284 284 284 284 284 284 284 284 284 284 284 284 284 283 283 283 283 282 282 282 282 281 281 281 280 280 280 279 279 279 278 278 278
271 271 271 271 271 271 271 272 272 273 273 273 274 275 275 276 277 277 278 278 278 279 279 279 279 279 279 280 280 280 281 281 281 281 281 281 281 281 281 282 282 282 282 282 282 282 283 283 283 283 284 284 284 284 284 284 284 284 284 284 284 284 284 284 284 284 283 283 283 283 283 282 282 282 281 281 281 280 280 280 280 279 279 279 278 278
271 271 271 271 272 272 272 273 273 274 274 274 275 276 276 277 277 278 278 278 278 278 279 279 279 279 279 279 280 280 281 281 281 281 281 281 281 282 282 282 282 282 283 283 283 283 284 284 284 284 284 284 285 285 285 285 285 285 284 284 284 284 284 284 284 284 283 283 283 283 283 282 282 282 281 281 281 281 280 280 280 279 279 279 278 278
272 272 273 273 273 273 274 274 274 275 275 275 276 276 277 277 277 277 277 278 278 278 278 279 279 279 279 280 280 280 281 281 281 281 281 281 282 282 283 283 283 283 284 284 284 284 285 285 285 285 285 285 285 285 285 285 285 285 285 285 285 284 284 284 284 284 284 283 283 283 283 282 282 282 281 281 281 281 280 280 280 279 279 279 279 278
273 274 274 274 274 274 275 275 275 275 276 276 276 277 277 277 277 277 277 277 278 278 279 279 279 280 280 280 281 281 281 281 281 282 282 282 283 284 284 284 284 284 285 285 285 285 286 286 286 286 286 286 286 285 285 285 285 285 285 285 285 285 285 284 284 284 284 284 283 283 283 282 282 282 282 281 281 281 280 280 280 280 279 279 279 278
275 275 275 275 275 275 275 275 275 276 276 276 276 276 276 277 277 277 277 278 278 279 279 279 280 280 281 281 282 282 282 282 282 283 283 284 284 285 285 285 285 285 286 286 286 286 286 286 286 286 286 286 286 286 286 286 286 286 285 285 285 285 285 285 284 284 284 284 283 283 283 283 282 282 282 282 281 281 281 281 280 280 280 279 279 279
275 275 275 275 275 275 275 275 276 276 276 276 276 277 277 277 277 278 278 279 279 279 280 280 280 281 281 282 283 283 283 283 284 284 285 285 285 286 286 286 286 286 286 286 286 286 286 286 286 286 286 286 286 286 286 286 286 286 286 286 285 285 285 285 285 284 284 284 284 283 283 283 283 282 282 282 282 281 281 281 280 280 280 279 279 279
275 275 275 275 275 275 276 276 276 276 277 277 277 278 278 278 278 279 279 279 280 280 280 281 281 282 282 283 284 285 285 285 285 285 286 286 286 286 286 286 286 286 287 287 287 287 287 287 287 287 287 287 287 286 286 286 286 286 286 286 286 285 285 285 285 285 285 284 284 284 283 283 283 283 282 282 282 281 281 281 280 280 280 279 279 279
276 276 276 276 277 277 277 277 277 278 278 278 278 279 279 279 279 280 280 281 281 281 282 282 283 283 284 285 285 286 286 286 286 286 286 286 287 287 287 287 287 287 287 287 287 287 287 287 287 287 287 287 287 287 287 287 286 286 286 286 286 286 286 286 285 285 285 285 284 284 284 283 283 283 282 282 282 281 281 281 280 280 280 279 279 279
278 278 278 278 278 279 279 279 279 279 279 280 280 280 280 281 281 282 282 283 283 284 284 284 285 285 286 286 286 287 287 287 287 287 287 287 287 287 287 287 287 287 287 287 287 287 287 287 287 287 287 287 287 287 287 287 287 287 287 287 286 286 286 286 286 285 285 285 284 284 284 283 283 283 282 282 282 281 281 281 280 280 280 280 279 279
280 280 280 280 280 280 280 281 281 281 281 282 282 282 283 283 284 284 285 285 285 286 286 286 286 286 287 287 287 287 287 287 287 287 287 287 287 287 288 288 288 288 288 288 288 288 288 288 288 288 288 288 288 288 287 287 287 287 287 287 287 287 286 286 286 286 285 285 284 284 284 283 283 282 282 282 282 281 281 281 281 280 280 280 279 279
282 282 282 282 283 283 283 283 283 284 284 284 285 285 285 286 286 286 287 287 287 287 287 287 287 287 287 287 287 287 287 287 287 288 288 288 288 288 288 289 289 289 289 288 288 288 288 288 288 288 288 288 288 288 288 288 287 287 287 287 287 287 286 286 286 286 285 285 284 284 283 283 283 283 282 282 282 282 281 281 281 281 280 280 280 279
285 285 285 285 285 286 286 286 286 286 287 287 287 287 287 287 287 287 287 287 287 287 287 287 287 287 287 287 287 288 288 288 288 288 289 289 289 289 289 289 290 289 289 289 289 289 289 288 288 288 288 288 288 288 288 287 287 287 287 287 287 287 286 286 286 285 285 285 284 284 284 283 283 283 282 282 282 282 282 281 281 281 280 280 279 279
289 288 288 288 288 288 288 288 288 288 288 288 288 288 288 288 288 288 288 288 288 288 288 288 288 288 288 288 288 288 288 289 289 289 289 289 290 290 290 290 290 290 290 289 289 289 289 288 288 288 288 288 287 287 287 287 287 287 287 287 287 287 286 286 286 285 285 284 284 284 283 283 283 283 282 282 282 282 281 281 281 281 280 280 279 278
291 291 291 290 290 290 290 290 290 290 290 289 289 289 289 289 289 289 289 289 289 289 289 289 289 289 289 289 289 289 289 290 290 290 290 290 290 290 290 290 290 289 289 289 289 288 288 288 288 288 288 287 287 287 287 287 287 287 287 287 287 287 286 286 285 285 284 284 284 284 283 283 283 282 282 282 282 282 281 281 280 280 279 279 278 278
293 293 293 293 292 292 292 292 292 292 291 291 291 291 291 291 291 290 290 290 290 290 290 290 290 290 290 290 290 290 290 290 290 290 290 290 290 290 289 289 289 289 289 288 288 288 288 288 288 288 287 287 287 287 287 287 287 287 287 287 287 287 286 286 285 285 284 284 283 283 283 283 283 282 282 282 282 281 281 280 280 279 279 278 278 277
296 296 296 295 295 295 294 294 294 293 293 293 293 292 292 292 291 291 291 291 291 291 290 290 290 291 291 291 291 291 290 290 290 290 290 289 289 289 289 289 288 288 288 288 288 288 288 288 288 288 288 288 288 288 288 287 287 287 287 287 287 286 286 285 285 284 284 284 283 283 283 283 282 282 282 282 281 281 280 280 279 279 278 277 277 277
298 297 297 296 296 296 295 295 294 294 294 293 293 292 292 292 291 291 291 291 291 291 291 291 291 291 291 291 291 290 290 290 289 289 289 289 288 288 288 288 288 288 288 288 288 288 288 288 288 288 288 288 288 288 288 288 287 287 287 287 287 286 285 285 284 284 284 283 283 283 283 282 282 282 282 281 281 281 280 280 279 279 278 277 277 277
298 297 297 296 296 295 295 295 294 294 293 293 292 292 292 292 291 291 291 291 291 291 290 291 290 290 290 290 290 290 290 289 289 289 289 289 288 288 288 288 288 288 288 288 288 288 288 288 288 288 288 288 288 288 288 287 287 287 287 287 286 285 285 284 284 283 283 283 283 282 282 282 282 282 281 281 281 281 280 280 279 279 278 278 278 277
297 297 296 296 296 295 295 294 294 293 293 292 292 292 291 291 291 291 291 290 290 290 290 290 290 290 290 290 290 290 289 289 289 289 289 288 288 288 288 288 288 288 288 288 288 288 288 288 288 288 288 287 287 287 287 287 287 287 287 286 285 285 284 284 283 283 282 282 282 282 282 282 282 281 281 281 281 280 280 280 279 279 279 279 278 278
297 297 296 296 295 295 294 294 293 293 292 292 291 291 291 291 291 290 290 290 290 290 290 290 290 290 290 290 289 289 289 289 289 289 289 288 288 288 288 288 288 288 288 288 288 288 288 288 288 288 288 287 287 287 287 287 287 287 286 286 285 284 283 283 282 282 282 282 282 282 282 282 282 281 281 281 281 280 280 280 280 280 280 280 279 279
297 297 296 295 295 294 294 293 293 292 292 292 291 291 291 291 291 291 291 290 290 290 290 290 290 290 290 290 290 290 290 290 290 289 289 289 289 288 288 288 288 288 288 288 288 287 287 287 288 288 288 288 288 288 288 287 287 287 286 285 284 284 283 283 282 282 282 282 282 281 281 282 282 281 281 281 281 281 281 281 281 281 281 280 280 279
297 296 296 295 295 294 294 293 293 292 292 292 292 292 292 292 291 291 291 291 291 291 291 291 291 291 291 290 290 290 290 290 290 290 289 289 289 289 289 288 288 288 288 288 287 287 287 287 287 287 288 288 288 288 288 288 287 286 285 285 284 283 283 282 282 282 281 281 281 281 282 282 282 281 281 281 281 281 282 282 282 281 281 280 280 280
297 297 296 295 295 295 294 294 294 293 293 293 293 293 293 292 292 292 292 292 292 291 291 291 291 291 291 291 291 291 291 290 290 290 290 289 289 289 289 289 288 288 288 288 287 287 287 287 287 287 287 288 288 288 288 288 287 286 285 284 284 283 283 282 282 282 282 281 282 282 282 282 282 281 281 282 282 282 282 282 282 281 281 280 280 280
298 297 297 296 296 295 295 295 295 294 294 294 294 294 293 293 293 293 293 293 292 292 292 292 292 292 292 292 291 291 291 291 291 290 290 289 289 289 289 289 288 288 288 287 287 287 287 287 287 287 287 288 288 288 288 288 287 286 285 284 284 283 283 282 282 282 282 282 283 282 282 282 282 282 282 282 282 282 282 282 281 281 281 281 280 280
298 298 297 297 297 296 296 296 296 295 295 295 295 295 294 294 294 294 294 293 293 293 293 293 292 292 292 292 292 291 291 291 291 290 290 290 289 289 289 289 288 288 288 287 287 287 287 287 287 287 287 288 288 289 289 288 287 286 285 284 283 283 283 283 283 283 283 283 283 283 283 282 282 282 283 283 283 282 282 281 281 281 280 280 280 280
299 299 298 298 298 297 297 297 297 296 296 296 296 296 296 295 295 295 295 294 294 294 294 293 293 293 292 292 292 291 291 291 291 290 290 290 290 289 289 289 288 288 288 287 287 287 287 287 287 287 288 288 288 288 288 288 287 286 285 284 284 283 283 283 283 284 284 284 284 283 283 283 283 283 283 283 282 282 281 281 281 280 280 280 280 279
300 300 299 299 299 299 298 298 298 298 298 297 297 297 297 296 296 296 295 295 295 294 294 294 294 293 293 292 292 292 291 291 291 291 290 290 290 289 289 289 288 288 287 287 287 287 287 287 287 288 288 288 288 288 288 288 287 287 286 285 284 283 283 284 284 285 285 285 284 284 284 284 284 284 284 283 282 282 281 281 280 280 279 279 279 279
301 301 301 300 300 300 300 300 299 299 299 299 298 298 298 297 297 297 296 296 295 295 295 294 294 294 293 293 292 292 291 291 291 291 291 290 290 290 289 289 288 288 287 287 287 287 287 287 287 288 288 288 289 288 288 288 287 287 287 286 285 285 284 285 285 286 286 285 285 285 285 285 285 284 284 283 282 281 281 280 279 279 278 278 278 278
303 302 302 302 302 301 301 301 301 300 300 300 299 299 299 299 298 297 297 296 296 295 295 295 294 294 293 293 293 292 292 292 292 292 291 291 290 290 289 289 288 288 287 287 287 287 287 287 288 288 288 288 288 288 288 288 288 287 287 287 286 286 286 287 287 287 286 286 285 285 285 285 285 284 283 282 282 281 280 279 279 278 278 277 277 277
304 304 304 304 304 303 303 302 302 302 301 301 301 300 300 299 299 298 298 297 297 296 296 295 295 294 294 293 293 292 292 292 292 292 292 291 291 290 289 289 288 288 287 287 287 287 287 288 288 288 288 288 289 289 289 289 288 288 287 287 287 288 288 289 289 288 287 286 286 286 286 285 284 284 283 282 281 280 280 279 278 278 277 277 276 276
306 306 306 305 305 305 304 304 303 303 302 302 302 301 301 300 299 299 298 297 297 297 296 296 295 295 294 294 293 293 293 293 293 293 292 292 291 291 290 289 289 288 288 288 288 288 288 288 288 288 289 289 289 289 289 289 289 288 288 288 288 289 290 290 290 289 288 287 287 286 286 285 284 283 282 281 280 280 279 279 278 278 277 277 277 277
308 308 307 307 307 306 306 305 305 304 303 303 303 302 301 301 300 299 299 298 298 297 297 296 296 295 295 295 294 294 294 294 293 293 293 292 292 291 290 290 289 289 288 288 288 288 288 288 288 288 289 289 289 290 290 290 289 289 288 289 289 290 291 291 290 289 288 288 287 286 285 284 283 282 281 280 280 279 279 279 279 279 278 278 278 278
309 309 309 308 308 307 307 306 306 305 304 304 303 303 302 301 301 300 299 299 298 298 297 297 296 296 296 296 295 295 295 294 294 294 293 292 292 291 290 290 289 289 289 289 289 289 289 289 289 289 289 289 290 290 290 290 289 289 289 289 290 291 291 291 290 289 288 287 286 285 284 283 282 282 281 280 280 280 280 280 280 280 281 280 280 280
311 310 310 310 309 309 308 307 306 306 305 305 304 304 303 302 301 300 300 299 299 298 298 297 297 297 297 297 296 296 296 295 295 294 293 292 292 291 290 290 289 289 289 289 289 289 289 289 289 289 290 290 290 290 290 289 289 289 289 290 291 291 291 290 289 288 288 287 286 285 284 283 282 281 281 280 280 281 281 282 282 283 283 284 283 283
312 312 311 311 310 309 309 308 307 306 306 305 305 304 304 303 302 301 300 300 299 299 299 298 298 298 298 297 297 297 297 296 296 295 294 293 292 291 290 290 290 290 290 290 290 290 289 290 290 290 291 291 291 290 290 289 288 288 289 290 291 291 290 289 288 288 287 286 285 284 283 282 282 281 281 281 281 282 283 283 284 285 286 286 286 285
313 313 312 312 311 310 309 308 308 307 307 306 306 305 304 303 302 302 301 300 300 300 299 299 299 298 298 298 298 298 298 297 297 296 295 294 293 292 291 291 291 290 290 290 290 290 290 290 291 291 292 292 291 290 289 288 288 288 289 290 290 290 289 288 287 287 286 285 284 283 283 282 282 282 282 282 282 283 284 285 286 287 288 288 288 287
314 313 313 312 311 311 310 309 308 308 308 307 307 306 305 304 303 302 302 301 301 300 300 300 299 299 299 299 298 298 298 298 297 297 296 295 294 294 293 293 292 292 292 291 291 291 291 291 291 292 292 292 291 290 289 288 288 289 289 290 290 289 288 287 286 285 285 284 283 283 283 282 283 283 283 284 284 285 286 288 289 290 290 290 290 290
315 314 313 313 312 311 310 310 309 309 308 308 307 307 306 305 304 303 302 302 301 301 301 300 300 300 300 299 299 299 298 298 298 297 297 296 296 295 295 295 294 294 293 293 292 292 292 292 292 292 293 292 291 290 289 288 289 289 289 289 289 288 287 286 285 284 284 283 283 283 283 284 284 285 285 286 287 288 289 290 291 292 292 292 292 292
315 314 314 313 312 312 311 310 310 310 309 309 308 307 306 306 305 304 303 303 302 302 301 301 301 300 300 300 300 299 299 298 298 298 298 297 297 297 297 296 296 295 295 294 294 293 293 293 293 293 293 292 291 289 288 288 289 289 289 289 288 287 286 285 284 284 283 283 283 283 284 284 286 287 288 289 291 292 293 294 295 295 294 294 294 293
Height
10480 10479 10480 10481 10482 10481 10480 10480 10480 10480 10478 10478 10478 10478 10477 10476 10475 10473 10472 10471 10470 10468 10466 10465 10463 10462 10460 10459 10458 10457 10456 10455 10454 10453 10452 10451 10449 10448 10446 10444 10442 10440 10438 10437 10435 10433 10431 10430 10428 10427 10425 10423 10421 10420 10419 10418 10416 10415 10415 10413 10413 10411 10411 10410 10410 10409 10408 10408 10407 10406 10406 10405 10405 10405 10405 10405 10404 10404 10404 10404 10404 10404 10404 10405 10405 10405
10473 10473 10473 10474 10475 10475 10473 10471 10473 10473 10471 10470 10469 10469 10469 10468 10466 10465 10464 10463 10461 10460 10458 10456 10455 10454 10452 10451 10450 10450 10448 10448 10447 10446 10445 10443 10442 10440 10438 10436 10435 10433 10431 10429 10427 10425 10423 10421 10420 10418 10416 10415 10413 10412 10411 10410 10408 10408 10406 10406 10405 10404 10403 10402 10401 10401 10400 10400 10399 10398 10398 10398 10397 10396 10396 10396 10396 10396 10396 10396 10395 10395 10396 10395 10395 10396
10466 10466 10466 10466 10467 10467 10465 10465 10465 10465 10465 10463 10462 10461 10461 10460 10458 10457 10456 10455 10453 10452 10451 10449 10448 10446 10445 10443 10442 10442 10441 10441 10440 10439 10438 10436 10435 10433 10431 10429 10427 10425 10423 10421 10419 10417 10415 10413 10411 10410 10408 10407 10405 10404 10403 10401 10401 10400 10399 10398 10397 10396 10395 10395 10394 10393 10392 10391 10391 10391 10390 10390 10389 10388 10388 10388 10387 10387 10387 10386 10386 10386 10386 10386 10386 10386
10460 10460 10458 10459 10460 10460 10458 10458 10457 10458 10457 10456 10456 10455 10454 10453 10451 10450 10449 10448 10446 10445 10443 10441 10440 10438 10437 10436 10435 10435 10434 10433 10433 10431 10430 10428 10426 10425 10423 10421 10419 10416 10415 10412 10410 10408 10406 10405 10403 10401 10400 10399 10397 10396 10395 10394 10393 10392 10391 10390 10390 10389 10388 10387 10386 10385 10385 10384 10383 10383 10382 10381 10381 10380 10380 10379 10378 10378 10378 10378 10378 10377 10377 10377 10377 10377
10453 10453 10451 10452 10453 10451 10450 10451 10451 10450 10450 10450 10449 10448 10446 10445 10444 10442 10441 10440 10439 10437 10435 10434 10433 10431 10430 10428 10428 10427 10426 10426 10425 10423 10422 10420 10418 10416 10415 10412 10410 10408 10406 10404 10402 10400 10398 10397 10395 10394 10392 10391 10390 10388 10387 10386 10386 10385 10384 10383 10383 10381 10381 10380 10379 10378 10377 10376 10375 10375 10374 10373 10372 10371 10371 10370 10370 10370 10369 10368 10368 10368 10368 10368 10368 10368
10446 10446 10446 10446 10445 10444 10443 10443 10444 10443 10443 10442 10441 10440 10440 10438 10436 10435 10433 10432 10431 10430 10428 10426 10425 10423 10422 10421 10420 10420 10419 10418 10417 10415 10414 10412 10410 10408 10406 10403 10401 10400 10398 10396 10394 10392 10390 10389 10387 10386 10385 10383 10382 10381 10380 10379 10378 10378 10377 10376 10375 10375 10373 10373 10371 10371 10370 10368 10368 10366 10366 10365 10364 10363 10362 10361 10361 10360 10360 10360 10359 10358 10358 10358 10358 10358
10440 10440 10440 10440 10438 10437 10437 10436 10436 10436 10436 10435 10433 10433 10431 10430 10429 10428 10426 10425 10423 10422 10420 10418 10417 10416 10415 10413 10413 10412 10411 10410 10409 10407 10405 10403 10401 10399 10397 10395 10393 10391 10390 10388 10386 10384 10383 10381 10380 10378 10377 10376 10375 10374 10373 10372 10371 10371 10370 10369 10368 10368 10366 10365 10364 10363 10361 10361 10360 10358 10358 10356 10356 10355 10354 10353 10352 10351 10351 10350 10350 10349 10349 10348 10348 10348
10432 10432 10433 10432 10431 10430 10430 10430 10429 10429 10429 10428 10426 10425 10423 10423 10421 10420 10418 10417 10416 10415 10413 10411 10410 10408 10407 10406 10405 10405 10404 10402 10401 10398 10396 10395 10392 10390 10388 10386 10385 10383 10381 10380 10378 10376 10375 10373 10372 10371 10370 10368 10368 10366 10366 10365 10364 10363 10363 10362 10361 10360 10359 10358 10356 10355 10354 10353 10351 10350 10349 10348 10347 10346 10345 10345 10344 10343 10342 10341 10341 10340 10340 10339 10339 10338
10425 10425 10425 10425 10425 10423 10423 10421 10421 10422 10422 10421 10419 10418 10416 10415 10413 10412 10411 10410 10408 10407 10406 10404 10401 10400 10398 10398 10398 10397 10396 10394 10392 10390 10388 10385 10383 10381 10380 10378 10376 10375 10373 10371 10370 10368 10367 10366 10365 10364 10363 10361 10361 10360 10359 10358 10357 10356 10355 10355 10353 10352 10351 10350 10348 10347 10346 10345 10343 10342 10341 10340 10339 10338 10337 10336 10335 10334 10333 10332 10331 10331 10330 10330 10329 10329
10418 10418 10417 10417 10417 10416 10416 10414 10413 10414 10415 10414 10412 10411 10410 10408 10406 10404 10403 10401 10400 10400 10399 10397 10395 10392 10390 10390 10390 10389 10388 10386 10384 10382 10380 10376 10375 10372 10371 10369 10368 10366 10365 10363 10362 10361 10360 10359 10358 10356 10356 10355 10354 10353 10352 10351 10350 10349 10348 10347 10346 10344 10343 10341 10340 10339 10338 10336 10335 10334 10333 10331 10330 10329 10328 10327 10326 10325 10324 10323 10322 10321 10320 10320 10320 10319
10410 10410 10410 10409 10409 10409 10409 10407 10406 10406 10407 10406 10405 10403 10402 10401 10400 10397 10395 10393 10392 10391 10391 10389 10387 10385 10383 10381 10380 10380 10380 10378 10375 10373 10371 10368 10366 10364 10363 10361 10360 10358 10356 10355 10354 10353 10352 10351 10351 10350 10348 10348 10346 10346 10345 10344 10343 10342 10341 10340 10338 10336 10335 10333 10332 10331 10330 10328 10327 10325 10324 10323 10321 10320 10319 10318 10316 10316 10315 10313 10313 10311 10311 10310 10310 10308
10402 10402 10403 10402 10401 10401 10401 10400 10400 10400 10400 10399 10397 10395 10394 10393 10393 10392 10390 10386 10385 10383 10382 10381 10379 10377 10376 10373 10372 10371 10371 10370 10367 10364 10361 10360 10358 10356 10355 10353 10351 10350 10348 10347 10346 10345 10345 10344 10343 10342 10341 10340 10340 10339 10338 10337 10336 10335 10333 10331 10330 10328 10327 10326 10324 10323 10321 10320 10318 10317 10315 10314 10313 10311 10310 10308 10307 10306 10305 10303 10303 10301 10301 10300 10299 10298
10395 10395 10395 10395 10394 10394 10393 10393 10393 10393 10392 10391 10390 10388 10386 10386 10386 10385 10383 10380 10378 10376 10375 10373 10370 10368 10368 10367 10366 10365 10363 10361 10358 10356 10353 10351 10349 10348 10348 10346 10344 10342 10341 10340 10338 10338 10337 10336 10336 10335 10334 10333 10332 10331 10331 10330 10328 10326 10325 10324 10322 10321 10319 10318 10316 10315 10313 10311 10310 10308 10306 10305 10303 10302 10301 10299 10298 10296 10295 10294 10293 10291 10291 10290 10289 10288
10388 10388 10388 10388 10387 10387 10387 10387 10386 10386 10385 10385 10383 10382 10380 10380 10379 10378 10375 10373 10370 10368 10368 10365 10363 10360 10360 10359 10359 10358 10356 10354 10351 10348 10345 10343 10341 10341 10341 10338 10336 10334 10333 10332 10330 10330 10329 10329 10328 10326 10326 10325 10325 10323 10323 10321 10320 10318 10317 10315 10314 10313 10311 10310 10308 10306 10305 10303 10301 10300 10298 10296 10295 10293 10291 10290 10288 10286 10285 10284 10283 10281 10280 10279 10278 10277
10383 10383 10382 10381 10381 10381 10381 10381 10380 10379 10378 10378 10377 10376 10374 10373 10371 10370 10368 10365 10363 10361 10360 10358 10355 10353 10351 10351 10351 10351 10350 10347 10343 10340 10336 10335 10334 10335 10335 10331 10328 10325 10325 10324 10323 10321 10320 10320 10320 10318 10317 10316 10316 10315 10314 10313 10311 10310 10309 10307 10306 10304 10303 10301 10300 10298 10296 10294 10292 10290 10288 10286 10285 10283 10281 10280 10278 10276 10275 10273 10272 10271 10270 10268 10268 10266
10378 10378 10377 10376 10375 10375 10375 10375 10374 10373 10371 10371 10370 10369 10368 10365 10364 10363 10361 10358 10356 10355 10354 10351 10348 10346 10344 10344 10345 10345 10343 10340 10336 10332 10330 10326 10326 10327 10328 10325 10320 10317 10316 10316 10315 10313 10311 10311 10311 10310 10309 10308 10307 10306 10306 10304 10303 10301 10300 10299 10297 10296 10294 10292 10290 10288 10286 10285 10283 10281 10279 10277 10275 10273 10271 10270 10268 10266 10265 10263 10262 10260 10259 10258 10256 10256
10373 10372 10371 10371 10370 10369 10368 10368 10368 10366 10365 10364 10363 10362 10361 10359 10357 10355 10354 10352 10350 10348 10347 10345 10343 10340 10336 10335 10336 10338 10337 10333 10328 10325 10323 10320 10318 10318 10320 10318 10313 10309 10308 10308 10306 10305 10303 10303 10301 10301 10300 10300 10298 10298 10296 10295 10294 10293 10291 10290 10288 10286 10285 10283 10281 10279 10277 10275 10273 10271 10269 10267 10265 10263 10261 10259 10257 10256 10254 10253 10251 10250 10249 10248 10246 10245
10368 10367 10366 10365 10364 10363 10363 10362 10361 10360 10359 10358 10356 10355 10354 10353 10351 10349 10348 10346 10345 10342 10340 10338 10336 10334 10331 10328 10327 10328 10330 10327 10322 10318 10315 10313 10311 10310 10311 10310 10306 10302 10300 10299 10298 10296 10295 10294 10293 10292 10291 10291 10290 10288 10288 10286 10285 10284 10282 10281 10279 10277 10275 10273 10271 10270 10267 10265 10263 10261 10258 10256 10254 10252 10250 10248 10247 10245 10244 10243 10241 10240 10238 10237 10236 10235
10363 10362 10361 10360 10359 10358 10358 10357 10356 10355 10353 10352 10351 10350 10348 10346 10345 10343 10341 10340 10338 10336 10334 10332 10330 10328 10326 10323 10320 10320 10321 10320 10316 10311 10308 10305 10303 10302 10302 10301 10298 10295 10292 10290 10289 10288 10287 10285 10285 10283 10283 10281 10281 10280 10278 10277 10276 10275 10273 10271 10270 10268 10266 10263 10261 10260 10257 10255 10253 10250 10248 10246 10243 10241 10240 10238 10237 10235 10234 10233 10231 10230 10229 10228 10226 10226
10358 10358 10357 10356 10355 10354 10353 10352 10351 10350 10348 10346 10345 10344 10341 10340 10339 10337 10335 10334 10332 10330 10328 10326 10323 10321 10320 10318 10315 10313 10313 10312 10308 10304 10300 10298 10296 10294 10293 10293 10290 10286 10284 10282 10281 10280 10278 10277 10275 10275 10274 10273 10271 10270 10269 10268 10266 10265 10263 10261 10260 10258 10256 10253 10251 10249 10246 10245 10242 10240 10238 10235 10233 10231 10230 10228 10227 10226 10224 10223 10222 10221 10220 10218 10218 10216
10354 10353 10353 10352 10351 10349 10348 10346 10346 10345 10343 10341 10340 10338 10336 10334 10333 10331 10329 10328 10326 10323 10321 10320 10317 10315 10313 10311 10308 10306 10305 10304 10301 10296 10293 10290 10288 10286 10285 10284 10282 10278 10275 10273 10271 10271 10270 10268 10266 10265 10264 10263 10262 10261 10259 10258 10256 10255 10253 10251 10250 10248 10246 10243 10241 10239 10236 10234 10231 10230 10227 10225 10223 10221 10220 10219 10218 10216 10215 10214 10213 10211 10211 10210 10208 10208
10350 10349 10348 10348 10346 10345 10343 10341 10340 10339 10338 10336 10334 10331 10330 10328 10326 10325 10323 10321 10319 10316 10315 10313 10310 10308 10306 10305 10301 10299 10298 10296 10293 10289 10285 10282 10279 10276 10276 10276 10274 10270 10266 10263 10262 10261 10260 10259 10257 10256 10255 10253 10252 10251 10250 10248 10247 10245 10244 10242 10240 10238 10236 10234 10231 10229 10226 10224 10221 10220 10217 10215 10214 10212 10211 10210 10208 10207 10206 10205 10204 10203 10202 10201 10200 10199
10346 10345 10344 10343 10342 10340 10338 10337 10335 10334 10333 10331 10329 10326 10325 10323 10321 10318 10316 10314 10312 10310 10307 10305 10303 10301 10299 10297 10295 10292 10290 10288 10286 10282 10279 10275 10270 10267 10267 10267 10265 10261 10256 10254 10253 10252 10250 10249 10248 10246 10246 10245 10243 10241 10240 10239 10238 10236 10235 10233 10231 10229 10226 10225 10222 10220 10217 10215 10212 10210 10208 10206 10205 10203 10202 10201 10200 10199 10198 10196 10196 10195 10194 10193 10191 10190
10343 10341 10340 10338 10337 10336 10334 10332 10330 10328 10327 10325 10323 10321 10319 10317 10315 10312 10310 10307 10305 10302 10300 10298 10295 10293 10290 10289 10287 10285 10282 10280 10278 10275 10271 10266 10263 10260 10258 10258 10256 10251 10247 10245 10243 10243 10241 10238 10237 10236 10236 10235 10234 10233 10231 10230 10229 10227 10225 10223 10221 10220 10218 10215 10213 10210 10208 10205 10203 10201 10199 10198 10196 10195 10193 10193 10191 10191 10190 10189 10188 10187 10186 10185 10183 10181
10338 10337 10335 10334 10333 10331 10329 10327 10325 10323 10321 10319 10317 10315 10313 10310 10308 10305 10303 10300 10298 10295 10292 10290 10287 10284 10281 10281 10280 10276 10274 10273 10271 10268 10263 10259 10255 10251 10250 10249 10247 10243 10238 10235 10233 10233 10231 10229 10228 10227 10227 10226 10225 10225 10223 10222 10220 10218 10216 10215 10213 10211 10209 10206 10204 10201 10199 10196 10195 10193 10191 10190 10188 10186 10186 10185 10184 10183 10182 10181 10181 10180 10178 10177 10176 10174
10334 10332 10331 10329 10327 10326 10324 10321 10320 10317 10315 10313 10310 10308 10306 10303 10301 10298 10295 10292 10290 10288 10285 10282 10279 10276 10274 10273 10271 10268 10266 10265 10263 10260 10256 10252 10247 10243 10241 10240 10239 10236 10230 10226 10224 10223 10221 10220 10218 10218 10218 10218 10216 10216 10215 10213 10212 10210 10208 10206 10205 10203 10200 10198 10195 10193 10191 10188 10186 10185 10183 10181 10180 10179 10178 10177 10176 10176 10175 10175 10174 10173 10171 10170 10168 10167
10329 10327 10325 10323 10321 10320 10317 10315 10313 10311 10308 10306 10303 10301 10298 10296 10293 10290 10286 10284 10282 10280 10277 10274 10270 10268 10266 10265 10263 10260 10258 10256 10254 10251 10248 10245 10240 10236 10232 10231 10231 10228 10223 10218 10215 10213 10212 10211 10210 10209 10209 10208 10208 10208 10206 10205 10204 10202 10200 10198 10196 10195 10192 10190 10187 10185 10183 10181 10179 10178 10176 10175 10173 10172 10171 10170 10170 10169 10168 10168 10167 10166 10165 10163 10162 10161
10323 10321 10319 10317 10315 10313 10310 10308 10306 10303 10301 10298 10296 10293 10291 10289 10285 10281 10278 10276 10275 10272 10269 10266 10263 10260 10257 10255 10253 10252 10251 10248 10246 10243 10240 10237 10233 10228 10225 10223 10222 10220 10216 10211 10207 10204 10203 10202 10201 10201 10200 10200 10200 10199 10198 10197 10196 10194 10193 10191 10189 10187 10185 10182 10180 10177 10175 10173 10172 10171 10169 10168 10166 10165 10165 10163 10163 10162 10161 10161 10160 10160 10158 10157 10156 10155
10318 10315 10313 10311 10309 10306 10304 10301 10299 10296 10294 10291 10288 10286 10283 10281 10278 10274 10270 10268 10266 10264 10260 10257 10255 10252 10250 10246 10245 10243 10242 10240 10238 10235 10232 10229 10224 10220 10217 10216 10214 10211 10208 10204 10200 10195 10193 10193 10193 10193 10192 10191 10191 10191 10190 10189 10188 10186 10185 10183 10181 10180 10177 10175 10172 10170 10168 10166 10165 10164 10163 10161 10160 10159 10158 10157 10156 10156 10155 10155 10154 10153 10152 10151 10150 10148
10313 10310 10308 10305 10303 10301 10298 10295 10293 10290 10287 10285 10281 10278 10276 10273 10270 10267 10263 10261 10258 10256 10252 10249 10246 10245 10242 10239 10236 10235 10233 10231 10230 10228 10225 10220 10215 10211 10210 10208 10205 10203 10201 10198 10193 10188 10184 10183 10184 10185 10185 10183 10183 10183 10182 10181 10181 10180 10178 10176 10175 10173 10170 10168 10166 10163 10162 10160 10159 10158 10156 10156 10155 10153 10152 10151 10150 10150 10149 10148 10147 10146 10146 10145 10144 10143
10307 10305 10302 10300 10297 10295 10292 10289 10286 10283 10280 10278 10275 10271 10268 10266 10263 10260 10256 10254 10251 10248 10245 10241 10239 10236 10234 10232 10229 10226 10223 10222 10221 10220 10217 10212 10207 10203 10201 10200 10196 10195 10193 10191 10187 10181 10176 10174 10174 10176 10176 10176 10176 10175 10175 10175 10174 10173 10171 10170 10168 10166 10164 10162 10160 10158 10156 10155 10153 10152 10151 10150 10149 10148 10146 10146 10145 10144 10143 10142 10141 10141 10140 10139 10138 10136
10301 10299 10296 10293 10291 10288 10285 10282 10280 10276 10273 10270 10267 10265 10261 10258 10255 10253 10250 10246 10243 10241 10238 10234 10231 10228 10226 10224 10221 10218 10215 10213 10211 10210 10208 10204 10199 10195 10193 10191 10188 10186 10185 10184 10181 10176 10171 10167 10165 10166 10167 10168 10168 10168 10168 10168 10167 10166 10164 10163 10161 10159 10158 10156 10154 10152 10150 10149 10148 10146 10146 10145 10143 10142 10141 10140 10139 10138 10137 10136 10136 10135 10134 10133 10131 10130
10295 10293 10290 10287 10284 10281 10278 10275 10272 10269 10266 10263 10260 10257 10254 10251 10248 10245 10242 10239 10236 10233 10230 10226 10223 10220 10218 10215 10213 10210 10208 10205 10203 10201 10199 10195 10191 10187 10185 10183 10181 10178 10176 10175 10173 10171 10167 10163 10160 10158 10158 10159 10160 10161 10161 10161 10161 10160 10158 10156 10154 10153 10151 10150 10148 10146 10145 10143 10143 10141 10141 10140 10138 10137 10136 10135 10133 10133 10132 10131 10131 10130 10128 10127 10126 10125
10289 10286 10283 10280 10277 10274 10271 10268 10265 10261 10258 10255 10252 10249 10246 10243 10240 10237 10234 10231 10228 10225 10222 10219 10215 10212 10209 10206 10204 10201 10200 10197 10195 10193 10190 10187 10183 10180 10177 10175 10173 10171 10169 10167 10165 10163 10161 10158 10155 10153 10151 10151 10152 10153 10154 10155 10154 10153 10151 10150 10148 10147 10146 10145 10143 10141 10140 10138 10138 10136 10136 10135 10133 10132 10130 10129 10128 10128 10127 10126 10125 10124 10123 10121 10120 10119
10281 10278 10275 10273 10269 10266 10263 10260 10256 10253 10250 10247 10244 10241 10238 10235 10232 10228 10225 10222 10220 10216 10213 10211 10208 10205 10201 10198 10195 10193 10190 10188 10187 10185 10182 10179 10176 10173 10170 10168 10166 10165 10162 10160 10158 10156 10154 10152 10150 10148 10146 10145 10145 10146 10148 10148 10147 10146 10145 10144 10143 10141 10140 10139 10138 10136 10135 10133 10133 10132 10131 10130 10128 10126 10125 10125 10123 10123 10121 10121 10120 10118 10117 10116 10115 10113
10274 10271 10268 10265 10261 10258 10255 10252 10249 10246 10243 10240 10236 10233 10230 10227 10224 10220 10217 10214 10211 10208 10205 10202 10200 10197 10194 10191 10188 10185 10182 10180 10178 10177 10175 10171 10169 10166 10163 10160 10159 10158 10156 10153 10151 10150 10148 10146 10145 10143 10141 10140 10139 10140 10141 10141 10141 10140 10139 10138 10137 10136 10135 10134 10132 10131 10129 10128 10128 10126 10126 10124 10123 10121 10121 10120 10119 10118 10116 10115 10114 10113 10111 10110 10110 10108
10267 10263 10260 10258 10255 10251 10248 10245 10241 10238 10235 10231 10228 10225 10222 10219 10216 10212 10209 10206 10203 10200 10196 10194 10191 10189 10186 10184 10181 10178 10175 10173 10171 10169 10167 10165 10162 10160 10156 10154 10152 10151 10150 10147 10145 10143 10142 10140 10138 10138 10136 10136 10135 10134 10134 10135 10135 10134 10133 10132 10131 10131 10130 10129 10128 10126 10125 10123 10122 10121 10120 10119 10118 10116 10116 10115 10114 10113 10111 10110 10109 10108 10106 10106 10105 10103
10260 10256 10253 10250 10247 10244 10241 10237 10234 10231 10228 10224 10221 10218 10214 10211 10208 10204 10201 10198 10195 10191 10188 10186 10183 10181 10178 10176 10174 10171 10168 10166 10163 10161 10160 10158 10156 10153 10150 10148 10146 10145 10143 10141 10139 10137 10136 10135 10133 10132 10131 10131 10130 10130 10129 10129 10128 10128 10127 10126 10126 10126 10125 10125 10123 10122 10120 10118 10117 10116 10115 10113 10113 10112 10111 10110 10108 10107 10106 10105 10104 10103 10102 10101 10100 10099
10253 10250 10246 10243 10240 10237 10233 10230 10226 10223 10220 10216 10213 10210 10206 10203 10200 10196 10193 10190 10186 10183 10180 10178 10175 10173 10171 10169 10166 10164 10161 10160 10157 10155 10153 10151 10150 10147 10145 10142 10140 10138 10137 10135 10134 10132 10131 10130 10128 10127 10126 10126 10125 10125 10125 10124 10123 10122 10121 10120 10120 10120 10120 10120 10119 10118 10116 10113 10111 10110 10109 10108 10108 10106 10106 10105 10103 10102 10101 10100 10099 10098 10097 10096 10095 10095
10246 10243 10240 10236 10233 10230 10226 10223 10220 10216 10213 10209 10206 10202 10199 10195 10191 10188 10185 10181 10178 10176 10173 10170 10168 10166 10163 10161 10160 10157 10155 10153 10151 10150 10148 10145 10143 10141 10139 10136 10135 10133 10131 10130 10128 10127 10126 10125 10124 10123 10122 10121 10120 10120 10119 10119 10118 10117 10116 10115 10114 10114 10115 10115 10115 10113 10111 10108 10106 10105 10104 10103 10103 10101 10100 10100 10098 10097 10096 10095 10095 10093 10093 10092 10091 10091
10240 10236 10233 10230 10226 10223 10220 10216 10213 10209 10205 10201 10198 10195 10191 10188 10184 10180 10177 10174 10171 10168 10166 10163 10161 10158 10156 10155 10153 10151 10149 10147 10145 10143 10141 10140 10138 10136 10133 10131 10129 10127 10126 10125 10123 10123 10121 10121 10120 10119 10118 10117 10116 10115 10115 10114 10113 10113 10111 10110 10108 10108 10109 10110 10110 10108 10106 10103 10101 10100 10099 10098 10097 10096 10096 10095 10093 10093 10091 10091 10090 10090 10089 10088 10088 10087
10233 10230 10226 10223 10219 10216 10212 10208 10205 10201 10198 10195 10191 10187 10183 10180 10176 10173 10170 10166 10163 10161 10158 10156 10154 10151 10150 10148 10146 10145 10143 10141 10140 10138 10136 10134 10132 10130 10128 10126 10124 10123 10121 10120 10118 10118 10117 10116 10116 10115 10114 10113 10112 10111 10110 10110 10109 10108 10106 10105 10104 10103 10103 10104 10103 10103 10100 10098 10096 10095 10095 10093 10093 10091 10091 10090 10089 10088 10087 10086 10086 10085 10085 10085 10084 10084
10226 10223 10219 10216 10212 10208 10205 10201 10198 10194 10190 10187 10183 10180 10176 10173 10169 10166 10162 10159 10156 10154 10151 10150 10147 10145 10143 10141 10140 10139 10138 10136 10135 10133 10131 10129 10127 10125 10123 10121 10120 10118 10116 10115 10114 10113 10113 10112 10111 10111 10110 10109 10108 10107 10106 10105 10104 10103 10101 10100 10100 10098 10098 10098 10098 10096 10095 10093 10092 10091 10090 10089 10088 10087 10086 10086 10085 10084 10083 10083 10082 10081 10081 10081 10081 10080
10219 10216 10212 10208 10205 10201 10198 10194 10190 10186 10183 10180 10176 10173 10169 10166 10162 10159 10155 10153 10150 10148 10145 10143 10141 10139 10137 10135 10134 10133 10131 10131 10130 10128 10126 10124 10122 10120 10118 10116 10115 10113 10112 10111 10110 10109 10108 10108 10108 10107 10106 10105 10104 10103 10101 10100 10099 10097 10096 10095 10095 10094 10093 10093 10091 10091 10090 10088 10088 10086 10085 10085 10083 10083 10082 10081 10081 10080 10080 10079 10078 10078 10078 10077 10077 10076
10212 10208 10205 10201 10198 10194 10190 10186 10183 10179 10176 10172 10169 10166 10162 10159 10155 10152 10149 10146 10144 10141 10139 10137 10135 10133 10131 10130 10128 10127 10126 10125 10124 10123 10121 10120 10118 10116 10114 10112 10110 10109 10108 10106 10106 10105 10104 10104 10103 10103 10103 10101 10100 10099 10098 10096 10094 10093 10091 10091 10090 10090 10089 10088 10086 10086 10085 10084 10083 10082 10081 10080 10080 10079 10078 10078 10077 10077 10076 10075 10075 10074 10073 10073 10073 10073
10206 10201 10198 10194 10190 10186 10183 10179 10175 10172 10168 10165 10162 10159 10156 10152 10149 10146 10143 10140 10138 10135 10133 10131 10130 10128 10125 10124 10123 10121 10120 10120 10119 10118 10117 10116 10114 10112 10110 10108 10106 10105 10104 10103 10101 10101 10100 10100 10099 10099 10098 10098 10096 10095 10093 10091 10090 10088 10086 10086 10086 10085 10085 10083 10082 10081 10080 10080 10079 10078 10077 10076 10075 10075 10075 10074 10074 10073 10073 10072 10071 10070 10070 10070 10069 10068
10198 10195 10191 10187 10183 10179 10176 10172 10168 10165 10161 10158 10156 10153 10150 10146 10143 10140 10137 10135 10132 10130 10128 10126 10125 10123 10121 10119 10118 10116 10115 10114 10113 10113 10112 10111 10110 10108 10106 10105 10103 10101 10100 10099 10098 10096 10096 10095 10095 10095 10095 10093 10092 10090 10089 10087 10085 10084 10083 10082 10081 10081 10080 10079 10078 10077 10076 10075 10075 10074 10073 10072 10071 10071 10071 10071 10070 10070 10070 10069 10068 10067 10066 10065 10065 10065
10192 10188 10184 10180 10176 10172 10168 10165 10161 10158 10155 10152 10149 10146 10143 10140 10137 10135 10131 10129 10127 10125 10123 10121 10120 10118 10116 10115 10113 10112 10111 10110 10109 10108 10108 10106 10105 10104 10103 10101 10100 10098 10096 10095 10094 10093 10092 10091 10091 10091 10090 10090 10088 10086 10084 10082 10081 10080 10079 10078 10077 10076 10076 10075 10074 10073 10072 10071 10071 10070 10070 10069 10068 10068 10067 10067 10067 10067 10066 10066 10065 10064 10063 10061 10061 10060
10186 10181 10177 10173 10170 10166 10162 10158 10155 10152 10149 10146 10143 10140 10138 10135 10132 10130 10126 10124 10122 10120 10118 10116 10115 10113 10111 10110 10109 10108 10107 10106 10105 10104 10103 10102 10101 10100 10098 10097 10095 10094 10093 10091 10090 10089 10088 10087 10087 10086 10086 10085 10084 10081 10079 10078 10076 10076 10075 10075 10073 10073 10072 10071 10070 10070 10069 10068 10067 10066 10066 10065 10065 10065 10064 10064 10063 10063 10063 10063 10062 10061 10060 10058 10057 10056
10179 10175 10171 10167 10163 10159 10156 10152 10149 10146 10143 10140 10138 10135 10132 10130 10127 10125 10122 10120 10117 10115 10113 10112 10110 10109 10107 10106 10105 10104 10103 10102 10101 10100 10099 10098 10096 10095 10094 10093 10091 10090 10088 10087 10086 10085 10083 10083 10083 10083 10083 10081 10080 10077 10075 10073 10072 10071 10071 10070 10070 10069 10068 10067 10066 10066 10065 10065 10064 10063 10063 10062 10061 10061 10061 10060 10060 10060 10060 10060 10059 10058 10056 10055 10053 10052
10173 10168 10165 10161 10157 10153 10150 10146 10143 10140 10138 10135 10132 10130 10127 10125 10122 10120 10118 10115 10113 10111 10110 10108 10106 10105 10103 10102 10101 10100 10099 10098 10097 10096 10095 10095 10093 10091 10090 10089 10087 10086 10084 10083 10081 10080 10079 10078 10078 10078 10078 10078 10076 10073 10071 10069 10068 10068 10067 10066 10066 10065 10065 10064 10063 10063 10062 10061 10061 10060 10060 10059 10058 10058 10057 10057 10056 10056 10056 10056 10056 10055 10053 10052 10050 10049